QPF
0.00 0.01 0.00 0.00 0.00 0.00 0.01 0.01 0.01 0.01 0.01 0.01 0.01 0.01 0.01 0.03 0.04 0.03 0.03 0.02 0.02 0.04 0.06 0.08 0.09 0.10 0.10 0.08 0.05 0.04 0.04 0.06 0.08 0.06 0.05 0.04 0.02 0.02 0.02 0.01 0.01 0.01 0.00 0.00
0.01 0.01 0.00 0.00 0.00 0.00 0.01 0.01 0.01 0.01 0.01 0.01 0.01 0.01 0.01 0.02 0.04 0.05 0.05 0.03 0.02 0.03 0.02 0.03 0.05 0.08 0.12 0.13 0.10 0.06 0.04 0.04 0.05 0.05 0.05 0.04 0.02 0.01 0.01 0.01 0.01 0.01 0.00 0.00
0.01 0.01 0.00 0.00 0.00 0.00 0.01 0.01 0.01 0.01 0.01 0.01 0.01 0.02 0.03 0.02 0.03 0.04 0.05 0.05 0.04 0.03 0.02 0.02 0.02 0.03 0.06 0.10 0.08 0.07 0.05 0.03 0.03 0.03 0.03 0.03 0.02 0.01 0.01 0.01 0.01 0.01 0.01 0.01
0.01 0.01 0.00 0.00 0.00 0.00 0.01 0.01 0.01 0.00 0.00 0.00 0.01 0.02 0.03 0.03 0.02 0.02 0.03 0.04 0.05 0.04 0.03 0.02 0.01 0.01 0.03 0.06 0.06 0.07 0.07 0.05 0.03 0.02 0.02 0.02 0.01 0.01 0.01 0.01 0.01 0.01 0.01 0.02
0.02 0.01 0.01 0.00 0.00 0.00 0.01 0.01 0.01 0.00 0.00 0.00 0.03 0.04 0.04 0.04 0.04 0.03 0.02 0.02 0.02 0.03 0.04 0.02 0.01 0.01 0.02 0.03 0.04 0.05 0.06 0.05 0.04 0.04 0.03 0.01 0.01 0.01 0.01 0.01 0.01 0.01 0.01 0.02
0.02 0.02 0.01 0.01 0.00 0.01 0.01 0.01 0.01 0.00 0.00 0.01 0.03 0.05 0.06 0.05 0.05 0.05 0.04 0.04 0.03 0.02 0.02 0.02 0.02 0.02 0.02 0.03 0.02 0.03 0.03 0.04 0.05 0.05 0.04 0.03 0.02 0.02 0.02 0.02 0.02 0.02 0.02 0.02
0.02 0.02 0.02 0.01 0.02 0.02 0.02 0.02 0.01 0.01 0.01 0.01 0.02 0.03 0.02 0.01 0.02 0.03 0.04 0.04 0.04 0.03 0.02 0.02 0.03 0.02 0.03 0.03 0.03 0.03 0.04 0.03 0.04 0.04 0.04 0.04 0.04 0.03 0.03 0.03 0.02 0.02 0.01 0.01
0.02 0.02 0.02 0.02 0.02 0.03 0.03 0.02 0.01 0.01 0.01 0.01 0.02 0.02 0.01 0.01 0.02 0.03 0.03 0.03 0.04 0.03 0.03 0.02 0.04 0.05 0.04 0.05 0.04 0.04 0.04 0.03 0.03 0.03 0.04 0.03 0.03 0.03 0.03 0.03 0.03 0.02 0.02 0.02
0.02 0.03 0.02 0.01 0.01 0.02 0.03 0.02 0.02 0.02 0.02 0.02 0.02 0.02 0.01 0.01 0.02 0.04 0.04 0.04 0.05 0.05 0.04 0.03 0.03 0.06 0.07 0.05 0.04 0.03 0.04 0.04 0.04 0.04 0.04 0.03 0.03 0.04 0.03 0.03 0.03 0.03 0.03 0.03
0.02 0.02 0.02 0.01 0.01 0.02 0.03 0.03 0.03 0.03 0.03 0.02 0.02 0.03 0.03 0.02 0.03 0.04 0.04 0.04 0.04 0.06 0.08 0.07 0.05 0.05 0.05 0.06 0.05 0.06 0.05 0.05 0.05 0.05 0.05 0.05 0.05 0.05 0.04 0.04 0.03 0.03 0.02 0.03
0.03 0.02 0.02 0.03 0.03 0.03 0.03 0.03 0.03 0.03 0.03 0.03 0.03 0.03 0.03 0.03 0.03 0.03 0.04 0.03 0.03 0.04 0.07 0.08 0.07 0.05 0.05 0.05 0.06 0.07 0.09 0.09 0.08 0.07 0.07 0.06 0.06 0.05 0.05 0.04 0.04 0.03 0.02 0.02
0.04 0.03 0.03 0.03 0.02 0.02 0.02 0.02 0.03 0.02 0.02 0.02 0.02 0.02 0.03 0.03 0.05 0.05 0.03 0.03 0.03 0.03 0.05 0.07 0.06 0.07 0.07 0.06 0.07 0.07 0.08 0.08 0.07 0.07 0.06 0.06 0.05 0.05 0.04 0.03 0.03 0.03 0.03 0.03
0.04 0.04 0.04 0.04 0.03 0.02 0.02 0.02 0.02 0.02 0.02 0.02 0.02 0.02 0.03 0.03 0.04 0.04 0.04 0.05 0.06 0.07 0.06 0.06 0.06 0.07 0.07 0.07 0.06 0.05 0.05 0.05 0.05 0.04 0.05 0.04 0.04 0.03 0.03 0.03 0.02 0.02 0.02 0.02
0.03 0.03 0.04 0.05 0.04 0.03 0.03 0.02 0.02 0.03 0.02 0.02 0.02 0.03 0.04 0.05 0.04 0.03 0.03 0.04 0.07 0.09 0.10 0.09 0.08 0.08 0.07 0.06 0.05 0.05 0.05 0.05 0.04 0.04 0.04 0.03 0.03 0.02 0.02 0.02 0.02 0.02 0.01 0.01
0.03 0.04 0.04 0.04 0.03 0.04 0.04 0.04 0.04 0.06 0.04 0.04 0.03 0.03 0.04 0.03 0.03 0.03 0.04 0.06 0.08 0.10 0.12 0.12 0.11 0.08 0.08 0.07 0.07 0.06 0.05 0.04 0.03 0.02 0.02 0.01 0.01 0.01 0.01 0.01 0.02 0.02 0.01 0.01
0.04 0.06 0.06 0.02 0.02 0.02 0.03 0.05 0.07 0.08 0.09 0.06 0.05 0.04 0.04 0.04 0.05 0.04 0.05 0.06 0.07 0.07 0.07 0.09 0.10 0.08 0.05 0.05 0.05 0.05 0.05 0.04 0.03 0.02 0.02 0.01 0.01 0.01 0.01 0.01 0.01 0.02 0.02 0.01
0.03 0.04 0.04 0.02 0.02 0.03 0.03 0.04 0.05 0.06 0.07 0.08 0.06 0.04 0.04 0.04 0.05 0.05 0.05 0.05 0.04 0.03 0.03 0.04 0.06 0.07 0.07 0.06 0.04 0.04 0.04 0.04 0.04 0.03 0.02 0.02 0.02 0.02 0.01 0.01 0.01 0.02 0.02 0.02
0.03 0.04 0.04 0.03 0.02 0.03 0.04 0.03 0.03 0.04 0.06 0.08 0.08 0.06 0.04 0.03 0.02 0.02 0.03 0.03 0.03 0.02 0.02 0.02 0.03 0.05 0.06 0.07 0.05 0.03 0.03 0.03 0.02 0.03 0.03 0.03 0.03 0.03 0.02 0.01 0.01 0.02 0.02 0.02
0.02 0.02 0.02 0.01 0.02 0.03 0.04 0.04 0.04 0.04 0.03 0.04 0.05 0.04 0.03 0.03 0.02 0.03 0.03 0.03 0.03 0.03 0.02 0.02 0.03 0.03 0.03 0.04 0.06 0.05 0.03 0.02 0.02 0.02 0.03 0.04 0.03 0.03 0.02 0.01 0.01 0.01 0.02 0.02
0.02 0.01 0.01 0.01 0.01 0.02 0.02 0.02 0.04 0.04 0.03 0.02 0.02 0.02 0.02 0.03 0.03 0.04 0.04 0.04 0.04 0.04 0.03 0.03 0.02 0.02 0.02 0.03 0.04 0.04 0.03 0.03 0.02 0.02 0.03 0.05 0.06 0.05 0.03 0.02 0.01 0.01 0.02 0.02
0.02 0.02 0.01 0.01 0.01 0.01 0.01 0.02 0.03 0.04 0.03 0.02 0.01 0.01 0.02 0.02 0.03 0.04 0.05 0.04 0.03 0.04 0.04 0.04 0.03 0.02 0.02 0.03 0.03 0.03 0.04 0.04 0.03 0.03 0.03 0.03 0.03 0.03 0.02 0.02 0.02 0.02 0.02 0.03
0.03 0.03 0.03 0.03 0.02 0.01 0.02 0.03 0.03 0.03 0.02 0.01 0.01 0.01 0.02 0.02 0.03 0.04 0.05 0.05 0.04 0.03 0.03 0.03 0.03 0.04 0.03 0.02 0.03 0.03 0.03 0.03 0.03 0.02 0.02 0.03 0.02 0.02 0.03 0.02 0.02 0.02 0.02 0.03
0.04 0.04 0.05 0.05 0.04 0.03 0.04 0.04 0.04 0.03 0.02 0.01 0.01 0.01 0.02 0.02 0.03 0.03 0.04 0.04 0.04 0.04 0.03 0.03 0.03 0.03 0.03 0.02 0.03 0.04 0.04 0.04 0.04 0.04 0.03 0.02 0.02 0.02 0.03 0.02 0.02 0.02 0.02 0.03
0.06 0.08 0.08 0.07 0.05 0.05 0.05 0.04 0.04 0.04 0.03 0.02 0.01 0.01 0.01 0.02 0.02 0.02 0.03 0.05 0.05 0.03 0.03 0.03 0.03 0.03 0.03 0.03 0.03 0.04 0.04 0.04 0.03 0.04 0.03 0.02 0.03 0.03 0.02 0.02 0.02 0.01 0.01 0.02
0.07 0.09 0.08 0.06 0.05 0.06 0.06 0.06 0.06 0.05 0.04 0.02 0.02 0.01 0.01 0.02 0.02 0.03 0.03 0.04 0.04 0.03 0.03 0.03 0.03 0.03 0.03 0.04 0.05 0.04 0.05 0.05 0.04 0.04 0.03 0.02 0.03 0.03 0.03 0.03 0.02 0.01 0.01 0.01
0.06 0.07 0.07 0.05 0.06 0.07 0.07 0.08 0.08 0.07 0.05 0.04 0.03 0.02 0.01 0.01 0.02 0.03 0.03 0.02 0.02 0.02 0.03 0.03 0.03 0.03 0.03 0.03 0.04 0.04 0.05 0.06 0.05 0.04 0.04 0.03 0.04 0.04 0.04 0.03 0.03 0.02 0.02 0.03
0.05 0.05 0.06 0.05 0.04 0.06 0.08 0.09 0.08 0.08 0.07 0.05 0.04 0.02 0.02 0.01 0.02 0.03 0.03 0.02 0.01 0.01 0.01 0.02 0.03 0.03 0.03 0.02 0.03 0.05 0.06 0.07 0.06 0.06 0.06 0.05 0.06 0.06 0.06 0.05 0.03 0.02 0.02 0.02
MSLP
1005.70 1006.23 1006.81 1007.43 1008.04 1008.62 1009.12 1009.49 1009.71 1009.77 1009.64 1009.35 1008.92 1008.36 1007.74 1007.07 1006.39 1005.72 1005.11 1004.58 1004.15 1003.85 1003.71 1003.73 1003.94 1004.32 1004.87 1005.55 1006.33 1007.14 1007.96 1008.72 1009.41 1009.99 1010.46 1010.83 1011.12 1011.35 1011.54 1011.70 1011.82 1011.92 1011.96 1011.95
1006.21 1006.84 1007.48 1008.12 1008.73 1009.26 1009.70 1010.02 1010.20 1010.24 1010.15 1009.92 1009.58 1009.14 1008.62 1008.04 1007.42 1006.78 1006.15 1005.54 1005.00 1004.56 1004.26 1004.12 1004.16 1004.40 1004.83 1005.41 1006.11 1006.88 1007.66 1008.41 1009.09 1009.67 1010.15 1010.53 1010.84 1011.08 1011.28 1011.45 1011.59 1011.71 1011.78 1011.79
1006.79 1007.51 1008.22 1008.90 1009.52 1010.03 1010.43 1010.70 1010.84 1010.85 1010.75 1010.55 1010.25 1009.87 1009.41 1008.89 1008.31 1007.69 1007.03 1006.37 1005.75 1005.20 1004.76 1004.48 1004.39 1004.50 1004.80 1005.29 1005.90 1006.61 1007.35 1008.07 1008.74 1009.32 1009.81 1010.21 1010.53 1010.79 1011.01 1011.20 1011.37 1011.51 1011.61 1011.65
1007.47 1008.26 1009.03 1009.74 1010.36 1010.86 1011.23 1011.45 1011.54 1011.51 1011.37 1011.15 1010.84 1010.48 1010.04 1009.54 1008.98 1008.35 1007.68 1006.99 1006.30 1005.67 1005.14 1004.76 1004.55 1004.55 1004.75 1005.14 1005.68 1006.33 1007.03 1007.73 1008.39 1008.98 1009.49 1009.91 1010.26 1010.54 1010.79 1011.01 1011.20 1011.36 1011.49 1011.56
1008.29 1009.10 1009.89 1010.61 1011.22 1011.69 1012.01 1012.18 1012.20 1012.11 1011.91 1011.63 1011.29 1010.89 1010.44 1009.93 1009.36 1008.73 1008.04 1007.32 1006.60 1005.92 1005.33 1004.87 1004.58 1004.49 1004.61 1004.93 1005.41 1006.02 1006.69 1007.39 1008.06 1008.68 1009.21 1009.67 1010.05 1010.37 1010.64 1010.88 1011.09 1011.28 1011.42 1011.51
1009.28 1010.05 1010.80 1011.48 1012.04 1012.45 1012.70 1012.80 1012.74 1012.57 1012.29 1011.95 1011.54 1011.09 1010.60 1010.06 1009.47 1008.82 1008.12 1007.38 1006.63 1005.92 1005.29 1004.78 1004.44 1004.30 1004.37 1004.64 1005.09 1005.68 1006.35 1007.06 1007.76 1008.42 1009.00 1009.50 1009.93 1010.28 1010.58 1010.83 1011.05 1011.24 1011.39 1011.49
1010.40 1011.08 1011.73 1012.31 1012.77 1013.09 1013.25 1013.25 1013.11 1012.85 1012.49 1012.06 1011.58 1011.07 1010.52 1009.94 1009.32 1008.65 1007.93 1007.18 1006.43 1005.70 1005.04 1004.51 1004.14 1003.96 1004.00 1004.26 1004.70 1005.29 1005.99 1006.74 1007.49 1008.20 1008.85 1009.40 1009.87 1010.26 1010.57 1010.84 1011.06 1011.24 1011.38 1011.48
1011.62 1012.15 1012.65 1013.08 1013.40 1013.60 1013.64 1013.53 1013.29 1012.94 1012.49 1011.98 1011.44 1010.87 1010.27 1009.65 1009.00 1008.31 1007.58 1006.81 1006.05 1005.31 1004.64 1004.09 1003.70 1003.51 1003.54 1003.80 1004.25 1004.87 1005.60 1006.41 1007.22 1008.00 1008.71 1009.33 1009.84 1010.26 1010.59 1010.85 1011.06 1011.23 1011.36 1011.46
1012.85 1013.19 1013.51 1013.76 1013.92 1013.96 1013.87 1013.65 1013.31 1012.87 1012.35 1011.77 1011.17 1010.55 1009.92 1009.27 1008.60 1007.89 1007.14 1006.37 1005.60 1004.85 1004.17 1003.60 1003.20 1003.00 1003.03 1003.28 1003.76 1004.40 1005.19 1006.05 1006.93 1007.78 1008.55 1009.22 1009.78 1010.23 1010.57 1010.83 1011.03 1011.18 1011.30 1011.40
1014.02 1014.16 1014.27 1014.33 1014.31 1014.20 1013.97 1013.64 1013.20 1012.68 1012.10 1011.48 1010.85 1010.20 1009.55 1008.89 1008.20 1007.49 1006.74 1005.96 1005.18 1004.42 1003.72 1003.15 1002.73 1002.51 1002.52 1002.77 1003.25 1003.92 1004.74 1005.64 1006.58 1007.49 1008.32 1009.04 1009.64 1010.11 1010.47 1010.73 1010.92 1011.06 1011.17 1011.27
1015.02 1014.97 1014.89 1014.77 1014.59 1014.32 1013.97 1013.53 1013.01 1012.43 1011.81 1011.17 1010.52 1009.88 1009.23 1008.57 1007.90 1007.19 1006.45 1005.68 1004.89 1004.12 1003.41 1002.80 1002.36 1002.11 1002.09 1002.32 1002.78 1003.45 1004.28 1005.20 1006.17 1007.12 1007.99 1008.75 1009.38 1009.87 1010.24 1010.52 1010.71 1010.85 1010.97 1011.08
1015.78 1015.58 1015.34 1015.06 1014.73 1014.34 1013.88 1013.35 1012.77 1012.16 1011.52 1010.87 1010.24 1009.61 1008.99 1008.37 1007.72 1007.05 1006.33 1005.58 1004.79 1004.02 1003.29 1002.66 1002.17 1001.88 1001.81 1001.99 1002.41 1003.04 1003.84 1004.75 1005.72 1006.67 1007.56 1008.34 1008.99 1009.51 1009.90 1010.19 1010.40 1010.56 1010.69 1010.82
1016.27 1015.95 1015.59 1015.19 1014.75 1014.26 1013.71 1013.12 1012.50 1011.87 1011.23 1010.60 1009.99 1009.41 1008.84 1008.27 1007.68 1007.06 1006.39 1005.67 1004.90 1004.13 1003.40 1002.73 1002.20 1001.85 1001.71 1001.82 1002.16 1002.72 1003.46 1004.32 1005.25 1006.18 1007.06 1007.84 1008.51 1009.04 1009.46 1009.78 1010.02 1010.20 1010.37 1010.53
1016.48 1016.08 1015.64 1015.16 1014.64 1014.08 1013.48 1012.85 1012.20 1011.56 1010.93 1010.34 1009.78 1009.25 1008.75 1008.25 1007.74 1007.19 1006.59 1005.92 1005.20 1004.45 1003.71 1003.03 1002.45 1002.04 1001.82 1001.84 1002.08 1002.54 1003.18 1003.96 1004.82 1005.70 1006.54 1007.31 1007.98 1008.53 1008.98 1009.32 1009.60 1009.82 1010.02 1010.21
1016.43 1015.99 1015.51 1014.98 1014.41 1013.81 1013.17 1012.52 1011.87 1011.23 1010.63 1010.07 1009.57 1009.11 1008.69 1008.28 1007.86 1007.39 1006.87 1006.28 1005.61 1004.91 1004.18 1003.50 1002.89 1002.42 1002.12 1002.04 1002.17 1002.51 1003.04 1003.71 1004.47 1005.28 1006.07 1006.81 1007.47 1008.03 1008.50 1008.88 1009.19 1009.45 1009.68 1009.90
1016.17 1015.72 1015.22 1014.67 1014.08 1013.46 1012.82 1012.16 1011.51 1010.89 1010.32 1009.80 1009.36 1008.97 1008.63 1008.31 1007.98 1007.61 1007.18 1006.67 1006.09 1005.44 1004.75 1004.08 1003.46 1002.94 1002.57 1002.39 1002.42 1002.64 1003.04 1003.59 1004.25 1004.97 1005.69 1006.39 1007.03 1007.60 1008.08 1008.48 1008.82 1009.12 1009.37 1009.61
1015.80 1015.35 1014.84 1014.29 1013.70 1013.08 1012.44 1011.78 1011.15 1010.55 1010.01 1009.54 1009.15 1008.83 1008.56 1008.32 1008.08 1007.81 1007.47 1007.06 1006.55 1005.97 1005.34 1004.70 1004.08 1003.55 1003.13 1002.88 1002.80 1002.92 1003.20 1003.64 1004.19 1004.81 1005.47 1006.12 1006.73 1007.29 1007.78 1008.20 1008.56 1008.88 1009.15 1009.39
1015.40 1014.95 1014.45 1013.91 1013.33 1012.72 1012.08 1011.45 1010.84 1010.27 1009.76 1009.33 1008.98 1008.71 1008.50 1008.33 1008.17 1007.97 1007.72 1007.39 1006.97 1006.47 1005.90 1005.31 1004.72 1004.19 1003.75 1003.45 1003.31 1003.33 1003.52 1003.86 1004.31 1004.85 1005.44 1006.04 1006.61 1007.15 1007.64 1008.07 1008.45 1008.77 1009.05 1009.29
1015.06 1014.61 1014.12 1013.59 1013.03 1012.44 1011.83 1011.23 1010.64 1010.11 1009.63 1009.23 1008.91 1008.68 1008.51 1008.38 1008.26 1008.12 1007.93 1007.67 1007.33 1006.90 1006.41 1005.88 1005.34 1004.83 1004.40 1004.09 1003.91 1003.88 1004.00 1004.26 1004.64 1005.11 1005.64 1006.18 1006.73 1007.25 1007.72 1008.15 1008.53 1008.85 1009.13 1009.36
1014.85 1014.40 1013.92 1013.41 1012.88 1012.32 1011.74 1011.17 1010.62 1010.12 1009.67 1009.29 1009.00 1008.78 1008.62 1008.51 1008.41 1008.30 1008.15 1007.94 1007.65 1007.29 1006.87 1006.41 1005.93 1005.48 1005.09 1004.80 1004.62 1004.57 1004.66 1004.87 1005.20 1005.61 1006.08 1006.59 1007.10 1007.59 1008.06 1008.47 1008.84 1009.16 1009.43 1009.65
1014.81 1014.36 1013.90 1013.41 1012.91 1012.39 1011.86 1011.33 1010.83 1010.35 1009.93 1009.58 1009.29 1009.07 1008.90 1008.78 1008.67 1008.56 1008.42 1008.23 1007.99 1007.68 1007.33 1006.94 1006.55 1006.17 1005.84 1005.59 1005.44 1005.41 1005.49 1005.68 1005.98 1006.36 1006.79 1007.26 1007.74 1008.21 1008.65 1009.06 1009.41 1009.72 1009.98 1010.19
1014.95 1014.51 1014.07 1013.61 1013.15 1012.67 1012.20 1011.72 1011.26 1010.82 1010.43 1010.08 1009.79 1009.56 1009.37 1009.21 1009.08 1008.95 1008.80 1008.61 1008.39 1008.13 1007.84 1007.53 1007.21 1006.92 1006.68 1006.50 1006.40 1006.41 1006.51 1006.70 1006.99 1007.34 1007.75 1008.19 1008.64 1009.09 1009.51 1009.89 1010.24 1010.53 1010.78 1010.98
1015.24 1014.82 1014.41 1013.99 1013.58 1013.16 1012.74 1012.32 1011.91 1011.51 1011.14 1010.80 1010.51 1010.25 1010.03 1009.83 1009.65 1009.48 1009.31 1009.12 1008.92 1008.70 1008.46 1008.22 1007.99 1007.79 1007.63 1007.54 1007.51 1007.57 1007.71 1007.92 1008.21 1008.55 1008.93 1009.35 1009.77 1010.18 1010.58 1010.94 1011.27 1011.55 1011.78 1011.97
1015.64 1015.26 1014.88 1014.52 1014.16 1013.80 1013.44 1013.08 1012.71 1012.36 1012.02 1011.69 1011.39 1011.11 1010.85 1010.62 1010.40 1010.19 1009.99 1009.80 1009.60 1009.41 1009.23 1009.06 1008.91 1008.80 1008.73 1008.72 1008.77 1008.88 1009.06 1009.29 1009.58 1009.92 1010.28 1010.66 1011.05 1011.43 1011.79 1012.12 1012.43 1012.68 1012.90 1013.06
1016.11 1015.77 1015.45 1015.14 1014.84 1014.53 1014.23 1013.93 1013.61 1013.30 1012.99 1012.68 1012.37 1012.08 1011.80 1011.53 1011.28 1011.05 1010.83 1010.63 1010.45 1010.29 1010.16 1010.05 1009.98 1009.95 1009.97 1010.03 1010.15 1010.31 1010.52 1010.77 1011.05 1011.37 1011.70 1012.04 1012.38 1012.72 1013.04 1013.33 1013.60 1013.83 1014.01 1014.15
1016.62 1016.33 1016.06 1015.80 1015.55 1015.31 1015.06 1014.80 1014.54 1014.26 1013.98 1013.69 1013.40 1013.10 1012.81 1012.53 1012.27 1012.03 1011.80 1011.61 1011.45 1011.32 1011.23 1011.18 1011.18 1011.22 1011.30 1011.42 1011.58 1011.78 1012.01 1012.26 1012.53 1012.81 1013.10 1013.39 1013.68 1013.95 1014.22 1014.46 1014.67 1014.85 1014.99 1015.09
1017.14 1016.90 1016.68 1016.47 1016.27 1016.06 1015.86 1015.64 1015.42 1015.18 1014.93 1014.66 1014.39 1014.11 1013.83 1013.56 1013.31 1013.07 1012.86 1012.68 1012.55 1012.46 1012.41 1012.41 1012.45 1012.54 1012.66 1012.82 1013.01 1013.22 1013.44 1013.68 1013.91 1014.15 1014.38 1014.61 1014.82 1015.03 1015.22 1015.40 1015.55 1015.67 1015.75 1015.80
Thickness
5690 5695 5695 5692 5692 5690 5683 5679 5674 5679 5681 5689 5694 5698 5702 5704 5705 5706 5706 5706 5705 5704 5703 5703 5703 5702 5701 5700 5698 5697 5694 5693 5692 5691 5690 5689 5688 5687 5687 5686 5686 5684 5682 5680
5680 5688 5687 5683 5687 5686 5683 5681 5678 5679 5680 5690 5693 5695 5696 5697 5699 5700 5701 5702 5702 5701 5700 5699 5700 5699 5699 5697 5695 5693 5692 5691 5690 5688 5687 5686 5685 5685 5684 5683 5682 5681 5679 5677
5663 5675 5678 5668 5679 5681 5678 5678 5675 5670 5676 5685 5685 5688 5690 5691 5692 5694 5696 5697 5697 5697 5697 5696 5697 5697 5696 5695 5693 5691 5689 5688 5687 5685 5685 5684 5684 5682 5681 5680 5679 5677 5676 5674
5652 5660 5653 5668 5683 5682 5676 5673 5673 5673 5676 5680 5682 5685 5688 5688 5688 5690 5692 5693 5694 5694 5693 5693 5693 5693 5693 5692 5691 5689 5687 5685 5684 5684 5683 5682 5680 5679 5678 5677 5676 5675 5674 5672
5639 5641 5649 5663 5672 5670 5666 5663 5668 5667 5670 5673 5677 5680 5681 5685 5684 5686 5689 5690 5691 5690 5690 5690 5690 5689 5688 5687 5687 5686 5685 5684 5684 5683 5681 5680 5678 5677 5676 5674 5673 5672 5671 5669
5633 5634 5636 5650 5665 5670 5664 5653 5662 5663 5663 5665 5667 5663 5670 5678 5679 5682 5685 5686 5687 5686 5686 5686 5686 5686 5684 5683 5683 5683 5684 5683 5682 5681 5679 5678 5676 5675 5673 5672 5670 5669 5668 5667
5624 5625 5633 5647 5657 5661 5644 5642 5653 5655 5656 5656 5656 5658 5666 5672 5674 5677 5679 5681 5682 5682 5681 5682 5682 5682 5680 5681 5681 5683 5682 5681 5679 5677 5676 5675 5672 5671 5669 5668 5666 5665 5664 5663
5614 5614 5620 5641 5644 5638 5636 5643 5646 5648 5650 5651 5653 5657 5661 5665 5667 5670 5672 5674 5676 5675 5675 5677 5677 5676 5676 5677 5679 5679 5678 5677 5675 5674 5672 5671 5668 5666 5665 5664 5662 5661 5659 5658
5611 5614 5622 5629 5631 5633 5634 5635 5638 5640 5643 5645 5647 5650 5654 5657 5660 5662 5664 5665 5667 5668 5668 5669 5670 5671 5670 5671 5672 5672 5671 5670 5669 5668 5667 5666 5665 5662 5661 5659 5658 5657 5656 5655
5603 5610 5615 5619 5622 5625 5628 5629 5632 5634 5636 5638 5639 5643 5646 5648 5651 5653 5656 5657 5658 5659 5660 5661 5662 5664 5665 5665 5665 5665 5664 5663 5662 5661 5660 5659 5659 5658 5657 5655 5654 5653 5652 5652
5591 5598 5605 5611 5612 5615 5619 5623 5625 5628 5629 5631 5634 5636 5638 5640 5643 5645 5646 5647 5649 5650 5652 5653 5655 5656 5657 5657 5657 5656 5656 5655 5655 5655 5654 5653 5653 5653 5653 5653 5652 5650 5649 5648
5579 5586 5587 5594 5602 5605 5608 5612 5615 5618 5621 5625 5627 5629 5631 5633 5635 5637 5639 5640 5641 5642 5643 5646 5647 5648 5648 5649 5650 5649 5647 5647 5647 5647 5647 5647 5647 5647 5647 5647 5647 5647 5646 5644
5574 5580 5582 5587 5592 5596 5599 5603 5607 5610 5613 5616 5619 5621 5623 5625 5627 5629 5631 5632 5633 5634 5636 5638 5639 5640 5641 5642 5642 5641 5640 5640 5639 5639 5639 5640 5640 5641 5640 5641 5641 5641 5641 5640
5569 5572 5575 5580 5583 5588 5592 5596 5599 5602 5605 5608 5610 5612 5614 5617 5619 5621 5622 5624 5625 5626 5628 5630 5631 5633 5634 5634 5634 5633 5633 5632 5633 5633 5633 5633 5634 5634 5634 5634 5635 5636 5636 5635
5564 5565 5567 5572 5575 5579 5583 5586 5589 5592 5595 5599 5601 5603 5605 5607 5609 5612 5614 5617 5618 5618 5620 5621 5623 5624 5626 5626 5626 5626 5626 5626 5627 5627 5627 5627 5627 5627 5628 5628 5629 5630 5630 5630
5556 5560 5563 5565 5568 5572 5574 5577 5579 5582 5586 5589 5591 5594 5597 5599 5602 5604 5606 5608 5609 5609 5611 5613 5615 5617 5619 5620 5620 5620 5620 5621 5621 5621 5621 5621 5621 5621 5621 5622 5623 5624 5624 5624
5546 5550 5555 5558 5561 5564 5566 5569 5571 5574 5578 5580 5583 5586 5589 5591 5594 5596 5598 5600 5601 5602 5604 5605 5607 5610 5612 5614 5614 5615 5614 5615 5615 5616 5616 5616 5616 5616 5616 5616 5617 5618 5619 5619
5543 5547 5549 5551 5554 5557 5560 5563 5565 5567 5570 5574 5576 5579 5581 5583 5585 5587 5589 5591 5593 5595 5597 5598 5600 5602 5604 5606 5607 5608 5608 5609 5609 5610 5610 5610 5610 5610 5610 5611 5612 5612 5613 5612
5541 5544 5546 5549 5551 5552 5554 5556 5558 5561 5564 5566 5568 5571 5573 5576 5578 5580 5581 5583 5585 5587 5589 5592 5593 5596 5598 5600 5601 5602 5603 5603 5604 5604 5604 5604 5604 5605 5605 5605 5606 5606 5607 5607
5537 5540 5542 5544 5546 5547 5548 5550 5551 5553 5556 5558 5561 5563 5566 5569 5571 5573 5574 5575 5578 5580 5582 5584 5586 5589 5592 5594 5595 5596 5597 5597 5598 5598 5598 5599 5598 5598 5598 5599 5600 5601 5600 5601
5531 5534 5536 5537 5539 5542 5543 5544 5545 5547 5549 5551 5553 5555 5558 5560 5562 5564 5566 5568 5571 5573 5575 5577 5580 5583 5585 5587 5589 5590 5591 5592 5592 5593 5593 5593 5593 5592 5592 5593 5594 5594 5594 5594
5525 5527 5529 5530 5533 5535 5537 5538 5539 5541 5542 5544 5547 5549 5550 5552 5554 5557 5559 5561 5564 5565 5568 5571 5573 5575 5578 5580 5582 5583 5584 5585 5586 5586 5586 5587 5587 5587 5587 5587 5587 5588 5588 5587
5519 5520 5522 5524 5526 5528 5531 5532 5533 5534 5535 5536 5539 5542 5544 5546 5548 5550 5553 5556 5557 5558 5561 5563 5566 5568 5570 5573 5574 5576 5577 5578 5579 5579 5580 5581 5581 5581 5581 5581 5581 5581 5580 5580
5514 5516 5518 5520 5522 5523 5524 5525 5525 5527 5528 5530 5533 5536 5539 5540 5543 5545 5548 5550 5551 5553 5555 5556 5558 5561 5563 5566 5567 5569 5570 5571 5572 5573 5574 5574 5574 5574 5574 5574 5573 5573 5572 5572
5507 5509 5512 5514 5515 5516 5516 5517 5518 5520 5522 5524 5527 5530 5533 5535 5536 5539 5542 5545 5546 5548 5549 5551 5552 5554 5556 5558 5560 5561 5563 5564 5565 5566 5567 5567 5567 5567 5566 5566 5565 5565 5564 5564
5500 5502 5504 5506 5506 5508 5509 5510 5511 5512 5515 5518 5521 5524 5526 5529 5531 5534 5537 5539 5541 5542 5543 5545 5547 5548 5550 5551 5553 5554 5555 5556 5557 5558 5559 5559 5559 5559 5558 5558 5557 5557 5556 5556
5495 5496 5497 5499 5501 5502 5504 5505 5506 5508 5510 5513 5515 5518 5521 5523 5526 5528 5530 5532 5534 5536 5537 5539 5541 5543 5544 5545 5546 5547 5548 5549 5549 5550 5550 5551 5551 5551 5550 5550 5549 5549 5548 5548